星链-36510(STARLINK-36510)

导读

STARLINK-36510是美国SpaceX星链互联网卫星项目中的一员,于2026年1月12日发射升空。星链计划旨在构建全球卫星互联网星座,为全球偏远地区、海洋等网络覆盖空白区域提供高速低延迟的宽带服务,该卫星是星链大规模组网进程中的新增节点,进一步扩充了星链星座的覆盖容量与服务能力。

Basic Information
目录编号:
67407
目录名称:
STARLINK-36510
国际标识:
2026-005D
轨道中心:
EARTH
卫星名称:
星链-36510
卫星全名:
星链-36510(STARLINK-36510)
卫星状态:
在轨 (已飞行236 天)
发射日期:
2026-01-12 UTC
国别 :
美国 (US)
星等 :
--
Orbit Information
数据来源 国际轨道数据 AOE轨道数据
星历时间 2026-09-04T20:09:41+0800
22小时前
查看轨道信息
2026-09-05T02:00:00+0800
16小时前
查看轨道信息
半长轴 6861.152km 6861.181km
偏心率 0.000203 0.0001347
轨道倾角 43.002° 43.002°
近地点辐角 289.302° 274.169°
升交点赤经 308.175° 306.804°
平近点角 70.762° 345.278°
近地点 481.622km 482.119km
远地点 484.408km 483.969km
周期 94.266分钟 94.267分钟
每日圈数 15.275915 15.275819
Detailed Information
固有亮度:
5
最大亮度:
2.5
卫星平台:
Starlink V1.0
覆盖范围:
全球
运营商:
太空探索技术公司
运营商所在国:
美国
制造商(研发单位):
太空探索技术公司
制造商所在国:
美国
使用方式:
暂无
Satellite Introduction
Starlink 计划是 SpaceX 推出的全球卫星互联网项目,通过发射低轨道卫星,为全球尤其是偏远地区提供高速、低延迟的互联网服务。自 2019 年起,Starlink 已部署数千颗卫星,旨在缩小全球数字鸿沟,推动互联网普及。该项目还为军事、航空等行业提供通信支持,带来广泛经济效益。
2D Orbit Map
3D Orbit Map
Orbit Altitude Analysis Chart
Orbit Inclination Analysis Chart
Orbit Comprehensive Analysis Chart
View Comprehensive Chart
Conjunction Data List
Event ID Objects TCA Miss Dist (km) Collision Risk Probability Collision Risk Index (CRI) Action
CDM_260907-160905-725106-740721
2026-09-07T
16:09:26+0000
0.716 km
远距离
6.077635E-5 中风险 0.71
CDM_260907-151505-993806-740721
2026-09-07T
15:15:32+0000
1.369 km
极远距离
5.784165E-6 低风险 0.5
CDM_260907-174305-725106-740721
2026-09-07T
17:43:36+0000
1.553 km
极远距离
4.549836E-6 低风险 0.48
CDM_260907-134105-993806-740721
2026-09-07T
13:41:22+0000
1.864 km
极远距离
2.263552E-6 低风险 0.42
CDM_260901-140706-540106-740721
2026-09-01T
14:07:26+0000
2.256 km
极远距离
2.069055E-6 低风险 0.41
CDM_260907-143505-725106-740721
2026-09-07T
14:35:17+0000
2.308 km
极远距离
1.601245E-6 低风险 0.39
CDM_260907-164905-993806-740721
2026-09-07T
16:49:41+0000
2.864 km
极远距离
9.740572E-7 极低风险 0.35